sat.trackr.live / text

‹ back to catalog

DMSP 5D-3 F17 (USA 191)

NORAD 29522 · 2006-050A

PAYLOAD ACTIVE UNKNOWN

§ Identity

Operator
Country
US
Launch date
2006-11-04
Launch site
AFWTR
Launch vehicle
Mass (kg)
RCS (m²)
4.48

Purposes: earth_obs

External: N2YO · Heavens-Above · Gunter

§ Orbital elements

Epoch: 2026-05-25T02:49:35.065344Z

Period
101.77 min
Inclination
98.7381°
Eccentricity
0.0011145
Mean motion
14.14988562 rev/d
Perigee alt
834.3 km
Apogee alt
850.4 km
Semi-major
7,220.5 km
B*
4.3343e-5
RAAN
152.1601°
Arg perigee
118.5017°
Mean anomaly
241.7280°
Rev number
916

§ Raw data

DMSP 5D-3 F17 (USA 191)1 29522U 06050A   26145.11776696  .00000041  00000+0  43343-4 0  99972 29522  98.7381 152.1601 0011145 118.5017 241.7280 14.14988562  9167

JSON: /api/v1/satellites/29522 · /tle

For live sub-satellite position, see the globe view (requires WebGL).

§ Visibility from observer

Set your observer location to see the next 7 days of passes ≥ 10°. The values pass through the URL so the page stays shareable.

No JS? Fill the form by hand. The geolocation button needs JavaScript.

§ Radio — SatNOGS DB

ModeDescriptionDownlinkUplink
FM Mode S 2.250 GHz
FM Mode S - Mission Data 2.233 GHz
FM Mode U - RTD1 400.328 MHz
FM Mode U - RTD2 400.822 MHz
FM RTD 2.253 GHz
BPSK S-band telemetry 2.239 GHz

6 transmitters · refreshed weekly from db.satnogs.org